FREGAT DEB, 45847

Orbit data source: Space-Track

FREGAT DEB, 45847 is space debris in LEO originally from a launch on Mon, 18 Jul 2011 UTC launched from the Tyuratam Missile And Space Complex (TTMTR). Debris objects in space refer to the collection of defunct objects orbiting the Earth. Examples of debris include non-operational satellites, rocket bodies, and fragments generated from explosions, collisions, or faulty payload assembly.

Loading next visibility...
Identifier
45847, 2011-037CH
Orbit
LEO
Last TLE update
8 hours ago
Origin
Manufacturer
Lavochkin
Mission
Spacecraft
Bus & Motor
Unknown
Mass
Unknown
Launch date (UTC)
2011-07-18 (14 years ago)
Launch vehicle
Unknown
Launch site
Tyuratam Missile And Space Complex (TTMTR)
Object type
Payload
Rocket body
Debris
Shape & HBR
Unknown
Radar Cross Section
Small (<0.1 m²)

Expand to show TLE details & history

TLE from 8 hours ago
0 FREGAT DEB
1 45847U 11037CH  25187.57934638  .00028975  00000-0  23281-2 0  9997
2 45847  51.4100  38.4248 1195868 244.6982 102.5424 12.93637410216095
Epoch: 2025-07-06T13:54Z
TLE epoch observation values (Epoch: 2025-07-06T13:54:15.527Z)
Latitude
-0.00007°
Longitude
-94.94096°
Altitude
1,586.45 km
Speed
6.938 km/s
True Right ascension
02h 33m 41s
True Declination
0° 00' 00"
Sunlit
Object was in daylight at epoch
Visualization orbit readout
Latitude
27.10924°
Longitude
59.91148°
Altitude
1,357.133 km
Speed
7.151 km/s
Apparent Right ascension
15h 53m 37s
Apparent Declination
-7° 11' 32"
Sunlit
Object is in daylight
Visualization observer readout
Local Sidereal Time
10:12:09
Azimuth
98.48° ESE
Elevation
-1.082°
Doppler factor
1
Orbital elements
Apogee altitude
2,204.34 km
Perigee altitude
370.894 km
Semi-major axis
7,665.754 km
Eccentricity
0.11959
Inclination
51.41°
RAAN
38.4248°
Arg. of periapsis
244.6982°
True anomaly
Unknown
Mean anomaly
102.5424°
Eccentric anomaly
Unknown
Mean motion
3.23378 °/min
Orbital period
111.32 mins
BSTAR
0.0023281
Loading maneuver chart data...
Loading SW <> Apogee altitude chart data...
Loading historical data...
Loading historical data...
Loading historical data...
Loading historical data...
Loading historical data...
Loading historical data...
Loading historical data...

FREGAT DEB Visibility forecast

Observer location: undefined°, undefined°

Span
Click to sort rows by Start time (UTC) header in descending order
Start Az.
Max El. time (UTC)
Max El. Az.
Max El.
End time (UTC)
End Az.
19 mins2025-07-06 23:46:04.010Z305.493° NW2025-07-06 23:58:04.010Z195.231° SSW44.489°2025-07-07 00:05:04.010Z136.764° SSE
11 mins2025-07-07 01:47:04.010Z285.248° WNW2025-07-07 01:53:04.010Z244.965° WSW21.003°2025-07-07 01:58:04.010Z201.844° SSW
14 mins2025-07-07 14:07:04.010Z148.368° SSE2025-07-07 14:13:04.010Z113.943° SE19.055°2025-07-07 14:21:04.010Z74.549° E
22 mins2025-07-07 15:59:04.010Z207.672° SW2025-07-07 16:09:04.010Z127.437° SE42.053°2025-07-07 16:21:04.010Z56.487° ENE
23 mins2025-07-07 17:56:04.010Z253.935° W2025-07-07 18:07:04.010Z332.301° NNW42.483°2025-07-07 18:19:04.010Z54.679° ENE
22 mins2025-07-07 19:56:04.010Z288.062° WNW2025-07-07 20:07:04.010Z355.737° N37.039°2025-07-07 20:18:04.010Z69.494° E
16 mins2025-07-07 21:56:04.010Z305.263° NW2025-07-07 22:07:04.010Z20.295° NNE40.997°2025-07-07 22:12:04.010Z85.912° E
|